User: anonymous   Login
Location: Unspecified
(0.0000°N, 0.0000°E)
Time: 16:25:10
(UTC+00:00)
Language:

COSMOS 2507 - Orbit

View from above orbital plane
View from above orbital plane
View from above satellite
View from above satellite

Ground track
Ground track

The orbit data is extracted from the following two-line orbital elements,

1 40920U 15050A   21333.91442265  .00000023  00000-0  96278-4 0  9992
2 40920  82.4968  33.2547 0009047  16.5511 343.5858 12.42883823280633
Epoch (UTC): 29 November 2021 21:56:46
Eccentricity: 0.0009047
inclination: 82.4968°
perigee height: 1487 km
apogee height: 1501 km
right ascension of ascending node: 33.2547°
argument of perigee: 16.5511°
revolutions per day: 12.42883823
mean anomaly at epoch: 343.5858°
orbit number at epoch: 28063

The dashed part of the orbit path shows where the satellite is in the earth's shadow,  

DLR